Location: Unspecified
(0.0000°N, 0.0000°E)
Time: 13:01:59
(UTC+00:00)

ISS - Pass Details

Date: 14 May 2022
Orbit: 414 x 421 km, 51.6° (Epoch: 20 May)

Event Time Altitude Azimuth Distance (km) Brightness Sun altitude
Rises 18:41:22 0° 243° (WSW) 2,360 0.8 -10.6°
Reaches altitude 10° 18:44:01 10° 264° (W) 1,492 0.2 -11.3°
Maximum altitude 18:46:13 16° 306° (NW) 1,160 -0.4 -11.8°
Drops below altitude 10° 18:48:25 10° 347° (NNW) 1,485 -0.5 -12.3°
Sets 18:51:03 0° 9° (N) 2,342 0.2 -12.9°
